DW6276 Weather Reports


Display with metric or nautical units.
time (UTC)temp
F
wind
direction
speed
MPH
gust
MPH
rain 1hr
in
rain 24hr
in
rain mn
in
humidity
%
barometer
mb
20260903183516 86 203 7.0 13.0 0.00 0.29 0.29 67 1009.2
20260903182536 86 180 6.0 12.0 0.00 0.29 0.29 66 1009.4
20260903181516 86 225 7.0 16.0 0.00 0.29 0.29 65 1009.3
20260903180516 86 203 7.0 14.0 0.00 0.29 0.29 65 1009.4
20260903175516 86 180 5.0 9.0 0.00 0.29 0.29 67 1009.5
20260903174516 85 203 8.0 13.0 0.00 0.29 0.29 66 1009.5
20260903173516 85 203 6.0 10.0 0.00 0.29 0.29 66 1009.5
20260903172536 84 203 8.0 15.0 0.00 0.29 0.29 66 1009.6
20260903171536 84 203 9.0 14.0 0.00 0.29 0.29 69 1009.5
20260903170516 84 180 9.0 14.0 0.00 0.29 0.29 67 1009.6
20260903165516 84 203 7.0 17.0 0.00 0.29 0.29 67 1009.7
20260903164516 84 180 10.0 21.0 0.00 0.29 0.29 66 1009.8
20260903163516 84 180 7.0 12.0 0.01 0.29 0.29 67 1010.1
20260903162536 84 180 7.0 12.0 0.01 0.29 0.29 68 1010.2
20260903161516 84 180 6.0 11.0 0.01 0.29 0.29 69 1010.3
20260903160516 83 158 6.0 10.0 0.01 0.29 0.29 72 1010.1
20260903155516 82 158 7.0 12.0 0.01 0.29 0.29 72 1009.9
20260903154535 81 158 6.0 10.0 0.01 0.29 0.29 73 1010.0
20260903153516 80 180 7.0 12.0 0.00 0.28 0.28 72 1010.1
20260903152516 79 158 6.0 13.0 0.00 0.28 0.28 74 1010.2
20260903151515 79 180 4.0 6.0 0.00 0.28 0.28 75 1010.1
20260903150515 79 158 4.0 8.0 0.00 0.28 0.28 75 1009.9
20260903145516 79 180 6.0 11.0 0.00 0.28 0.28 75 1009.7
20260903144535 78 158 4.0 7.0 0.00 0.28 0.28 78 1009.7
20260903143515 77 180 4.0 7.0 0.00 0.28 0.28 78 1009.8
20260903142515 77 180 4.0 7.0 0.00 0.28 0.28 79 1009.9
20260903141516 77 158 2.0 5.0 0.00 0.28 0.28 81 1009.6
20260903140515 76 203 1.0 3.0 0.00 0.28 0.28 83 1009.6
20260903135535 75 180 2.0 4.0 0.00 0.28 0.28 84 1009.8
20260903134515 74 180 2.0 4.0 0.00 0.28 0.28 84 1009.9
20260903133515 74 180 3.0 5.0 0.00 0.28 0.28 85 1010.0
20260903132516 73 158 3.0 5.0 0.00 0.28 0.28 86 1009.9
20260903131535 73 180 4.0 8.0 0.00 0.28 0.28 86 1009.8
20260903130515 72 158 4.0 8.0 0.00 0.28 0.28 87 1009.5
20260903125515 71 135 4.0 7.0 0.00 0.28 0.28 88 1009.5
20260903124515 71 0 4.0 7.0 0.00 0.28 0.28 88 1009.6
20260903123515 71 0 5.0 8.0 0.01 0.28 0.28 89 1009.7
20260903122515 71 0 5.0 9.0 0.01 0.28 0.28 89 1009.9
20260903121515 71 0 6.0 11.0 0.02 0.28 0.28 89 1010.0
20260903120515 71 0 4.0 7.0 0.09 0.28 0.28 89 1010.1
20260903115515 71 0 5.0 9.0 0.12 0.28 0.28 89 1010.0
20260903114515 71 0 5.0 8.0 0.14 0.28 0.28 90 1010.0
20260903113517 72 0 6.0 9.0 0.14 0.27 0.27 90 1009.6
20260903112517 72 0 6.0 10.0 0.14 0.27 0.27 89 1009.2
20260903111517 72 0 6.0 9.0 0.13 0.26 0.26 89 1010.3
20260903110517 73 0 6.0 10.0 0.06 0.19 0.19 88 1011.0
20260903105517 72 0 6.0 11.0 0.10 0.16 0.16 89 1011.3
20260903104517 73 0 3.0 11.0 0.14 0.14 0.14 91 1010.5
20260903103557 73 0 3.0 5.0 0.13 0.13 0.13 91 1011.2
20260903102517 73 0 2.0 5.0 0.13 0.13 0.13 91 1010.7
20260903101517 73 0 4.0 6.0 0.13 0.13 0.13 91 1010.5
20260903100517 73 0 5.0 7.0 0.13 0.13 0.13 92 1010.7
20260903095517 72 0 3.0 7.0 0.06 0.06 0.08 91 1010.9
20260903094517 72 0 1.0 2.0 0.00 0.00 0.00 91 1010.8
20260903093517 72 0.0 1.0 0.00 0.00 0.00 90 1010.2
20260903092517 72 0 1.0 2.0 0.00 0.00 0.00 90 1010.3
20260903091517 72 0 1.0 3.0 0.00 0.00 0.00 90 1010.5
20260903090517 71 0 1.0 3.0 0.00 0.00 0.00 90 1010.7
20260903085537 71 0 1.0 4.0 0.00 0.00 0.00 90 1010.2
20260903084517 71 0.0 2.0 0.00 0.00 0.00 90 1010.1
20260903083517 71 0.0 2.0 0.00 0.00 0.00 90 1010.0
20260903082517 72 0 1.0 2.0 0.00 0.00 0.00 90 1009.8
20260903081537 72 0 1.0 2.0 0.00 0.00 0.00 89 1009.9
20260903080517 72 0.0 1.0 0.00 0.00 0.00 89 1010.1
20260903075517 72 0.0 2.0 0.00 0.00 0.00 89 1010.3
20260903074517 72 0.0 3.0 0.00 0.00 0.00 89 1010.4
20260903073517 72 0 1.0 4.0 0.00 0.00 0.00 89 1010.2
20260903072517 72 0.0 2.0 0.00 0.00 0.00 89 1010.6
20260903071517 72 0.0 2.0 0.00 0.01 0.00 89 1010.5
20260903070517 72 0 1.0 2.0 0.00 0.01 0.00 89 1010.5
20260903065517 72 0 1.0 2.0 0.00 0.02 0.00 89 1010.4
20260903064517 73 0 1.0 2.0 0.00 0.03 0.00 89 1010.4
20260903063518 73 0 1.0 1.0 0.00 0.03 0.00 88 1010.5
20260903062517 73 0.0 1.0 0.00 0.04 0.00 88 1010.5
20260903061516 74 0 1.0 2.0 0.00 0.05 0.00 88 1010.6
20260903060516 74 135 2.0 3.0 0.00 0.05 0.00 87 1010.5
20260903055537 74 135 2.0 4.0 0.00 0.06 0.00 87 1010.6
20260903054516 74 135 2.0 4.0 0.00 0.10 0.00 87 1010.6
20260903053516 75 158 2.0 4.0 0.00 0.11 0.00 87 1010.7
20260903052516 75 135 2.0 5.0 0.00 0.11 0.00 87 1010.6
20260903051516 75 113 2.0 5.0 0.00 0.11 0.00 87 1010.5
20260903050516 75 135 2.0 5.0 0.00 0.11 0.00 87 1010.6
20260903045515 75 158 2.0 4.0 0.00 0.11 0.11 86 1010.6
20260903043539 75 135 3.0 5.0 0.00 0.12 0.11 87 1010.7
20260903042517 75 135 3.0 5.0 0.00 0.12 0.11 87 1010.7
20260903041517 75 135 2.0 3.0 0.00 0.12 0.11 87 1010.9
20260903040517 75 135 2.0 4.0 0.00 0.12 0.11 88 1011.0
20260903035517 74 135 2.0 3.0 0.00 0.12 0.11 88 1010.8
20260903034517 74 135 1.0 2.0 0.00 0.12 0.11 88 1010.9
20260903033517 74 135 1.0 2.0 0.00 0.12 0.11 88 1011.0
20260903032517 74 135 1.0 2.0 0.00 0.12 0.11 88 1011.0
20260903031517 74 113 2.0 3.0 0.00 0.12 0.11 88 1011.0
20260903030537 74 113 2.0 3.0 0.00 0.12 0.11 88 1010.9
20260903025517 74 135 1.0 2.0 0.00 0.12 0.11 88 1010.8
20260903024537 75 113 2.0 3.0 0.00 0.12 0.11 88 1011.0
20260903023517 75 135 2.0 3.0 0.00 0.12 0.11 88 1011.0
20260903022517 75 135 1.0 2.0 0.00 0.12 0.11 88 1010.8
20260903021517 75 135 1.0 1.0 0.00 0.12 0.11 88 1010.8
20260903020517 75 135 2.0 3.0 0.00 0.12 0.11 88 1010.7
20260903015517 75 135 1.0 2.0 0.00 0.12 0.11 88 1010.6
20260903014537 76 135 1.0 1.0 0.00 0.12 0.11 87 1010.3
20260903013537 76 0.0 1.0 0.00 0.12 0.11 87 1010.3
20260903012517 77 135 1.0 1.0 0.00 0.12 0.11 87 1010.3
20260903011557 77 135 1.0 1.0 0.00 0.12 0.11 86 1010.3
20260903010537 78 135 1.0 2.0 0.00 0.12 0.11 85 1010.3
20260903005517 79 135 1.0 1.0 0.00 0.12 0.11 84 1010.4
20260903004517 80 135 2.0 2.0 0.00 0.12 0.11 82 1010.3
20260903003517 81 0.0 1.0 0.00 0.12 0.11 80 1010.5
20260903002517 82 135 1.0 2.0 0.00 0.12 0.11 79 1010.1
20260903001517 83 113 1.0 3.0 0.00 0.12 0.11 76 1010.2
20260903000517 84 90 1.0 2.0 0.00 0.12 0.11 74 1010.3
20260902235517 84 90 2.0 5.0 0.00 0.12 0.11 72 1010.5
20260902234516 85 90 3.0 5.0 0.00 0.12 0.11 71 1010.5
20260902233516 85 90 2.0 5.0 0.00 0.12 0.11 70 1010.5
20260902232516 85 90 3.0 5.0 0.00 0.12 0.11 71 1010.5
20260902231516 85 90 4.0 6.0 0.00 0.12 0.11 70 1010.5
20260902230517 86 90 3.0 5.0 0.00 0.12 0.11 68 1010.5
20260902225516 86 68 3.0 5.0 0.00 0.12 0.11 68 1010.6
20260902223521 87 90 1.0 2.0 0.00 0.12 0.11 66 1010.6
20260902222516 87 135 2.0 3.0 0.00 0.12 0.11 66 1010.7
20260902221516 87 113 1.0 2.0 0.00 0.12 0.11 65 1010.7
20260902220537 87 113 1.0 3.0 0.00 0.12 0.11 64 1010.7
20260902215517 86 135 2.0 4.0 0.00 0.12 0.11 65 1010.7
20260902214516 86 113 1.0 3.0 0.00 0.12 0.11 64 1010.7
20260902213516 86 90 2.0 5.0 0.00 0.12 0.11 64 1010.8
20260902212516 87 90 2.0 3.0 0.00 0.12 0.11 64 1011.0
20260902211556 87 113 2.0 4.0 0.00 0.12 0.11 64 1011.1
20260902210536 87 158 1.0 5.0 0.00 0.12 0.11 63 1011.2
20260902205516 86 135 2.0 4.0 0.00 0.12 0.11 64 1011.2
20260902204516 86 180 3.0 5.0 0.00 0.12 0.11 63 1011.4
20260902203516 86 180 2.0 5.0 0.00 0.12 0.11 68 1011.4
20260902202516 85 90 2.0 5.0 0.00 0.12 0.11 69 1011.4
20260902201536 85 90 3.0 7.0 0.00 0.12 0.11 69 1011.5
20260902200516 85 113 2.0 5.0 0.00 0.12 0.11 68 1011.5
20260902195536 84 113 3.0 5.0 0.00 0.12 0.11 68 1011.6
20260902194516 85 45 2.0 7.0 0.00 0.12 0.11 68 1011.8
20260902193516 84 113 2.0 4.0 0.00 0.12 0.11 67 1011.7
20260902192516 83 90 3.0 5.0 0.00 0.12 0.11 69 1011.7
20260902191516 84 68 4.0 6.0 0.00 0.12 0.11 69 1011.9
20260902190516 84 113 2.0 4.0 0.00 0.12 0.11 69 1011.9
20260902185516 84 0 1.0 2.0 0.00 0.12 0.11 70 1011.9
20260902184516 83 45 3.0 6.0 0.00 0.12 0.11 68 1012.0